Vero Beach, FL

3:05 AM EDT on September 22, 2017 (GMT -0400)
Vero Beach Municipal

Weather History for KVRB - December, 2013

Change the Weather History Date:

Friday, December 6, 2013

  Actual Average Record
Temperature  
Mean Temperature 72 °F 66 °F  
Max Temperature 80 °F 76 °F 87 °F (1942)
Min Temperature 63 °F 57 °F 37 °F (1968)
Degree Days  
Heating Degree Days 0 2  
Month to date heating degree days 1 12  
Since 1 July heating degree days 12 42  
Cooling Degree Days 7 4  
Month to date cooling degree days 25 24  
Year to date cooling degree days 3498 3335  
Growing Degree Days 22 (Base 50)    
Moisture  
Dew Point 69 °F    
Average Humidity 88    
Maximum Humidity 100    
Minimum Humidity 76    
Precipitation  
Precipitation 0.32 in 0.07 in 1.15 in (1988)
Month to date precipitation 1.77 0.46  
Year to date precipitation 43.98 50.14  
Sea Level Pressure  
Sea Level Pressure 30.16 in    
Wind  
Wind Speed 5 mph (SSE)    
Max Wind Speed 14 mph    
Max Gust Speed 18 mph    
Visibility 9 miles    
Events Rain    
T = Trace of Precipitation, MM = Missing Value Source: NWS Daily Summary

Daily Weather History Graph

Daily Weather History Graph

Search for Another Location

Airport or City:

Trip Planner

Search our weather history database for the weather conditions in past years. The results will help you decide how hot, cold, wet, or windy it might be!

Date:

Astronomy

Dec. 06, 2013 Rise Set
Actual Time 6:58 AM EST 5:26 PM EST
Civil Twilight 6:33 AM EST 5:52 PM EST
Nautical Twilight 6:04 AM EST 6:21 PM EST
Astronomical Twilight 5:35 AM EST 6:49 PM EST
Moon 10:14 AM EST (12/6) 9:43 PM EST (12/6)
Length of Visible Light 11h 18m
Length of Day
10h 27m
Waxing Crescent, 19% of the Moon is Illuminated
Dec 6
Waxing Crescent
Dec 9
First Quarter
Dec 17
Full
Dec 25
Last Quarter
Jan 1
New

Hourly Weather History & Observations

Time (EST) Temp. Dew Point Humidity Pressure Visibility Wind Dir Wind Speed Gust Speed Precip Events Conditions
12:53 AM 68.0 °F 68.0 °F 100% 30.13 in 10.0 mi SE 3.5 mph - N/A   Clear
1:53 AM 66.0 °F 66.0 °F 100% 30.13 in 9.0 mi Calm Calm - N/A   Partly Cloudy
2:53 AM 68.0 °F 68.0 °F 100% 30.12 in 10.0 mi Calm Calm - N/A   Scattered Clouds
3:53 AM 70.0 °F 69.1 °F 97% 30.12 in 10.0 mi South 3.5 mph - N/A   Mostly Cloudy
4:11 AM 69.8 °F 69.8 °F 100% 30.13 in 10.0 mi SSW 4.6 mph - N/A   Overcast
4:53 AM 70.0 °F 70.0 °F 100% 30.14 in 10.0 mi Calm Calm - N/A   Overcast
5:44 AM 71.6 °F 71.6 °F 100% 30.14 in 10.0 mi SSE 3.5 mph - 0.07 in Rain Light Rain
5:53 AM 71.1 °F 71.1 °F 100% 30.14 in 10.0 mi Calm Calm - 0.07 in   Mostly Cloudy
6:13 AM 69.8 °F 69.8 °F 100% 30.15 in 10.0 mi Calm Calm - N/A   Mostly Cloudy
6:31 AM 71.6 °F 71.6 °F 100% 30.17 in 1.8 mi SW 5.8 mph - 0.09 in Rain Heavy Rain
6:41 AM 71.6 °F 71.6 °F 100% 30.16 in 4.0 mi SSW 4.6 mph - 0.23 in Rain Light Rain
6:53 AM 71.1 °F 71.1 °F 100% 30.17 in 10.0 mi Calm Calm - 0.23 in   Overcast
7:53 AM 71.1 °F 71.1 °F 100% 30.18 in 10.0 mi SE 3.5 mph - N/A   Mostly Cloudy
8:53 AM 72.0 °F 71.1 °F 97% 30.21 in 5.0 mi SE 11.5 mph - 0.00 in Rain Light Rain
9:48 AM 71.6 °F 71.6 °F 100% 30.22 in 1.0 mi South 9.2 mph - 0.01 in Rain Light Rain
9:53 AM 72.0 °F 71.1 °F 97% 30.22 in 1.0 mi South 8.1 mph - 0.02 in Rain Light Rain
9:57 AM 71.6 °F 71.6 °F 100% 30.22 in 10.0 mi South 6.9 mph - 0.00 in Rain Light Rain
10:53 AM 73.0 °F 70.0 °F 90% 30.21 in 10.0 mi SE 6.9 mph - 0.00 in   Overcast
11:53 AM 73.9 °F 70.0 °F 87% 30.18 in 10.0 mi East 6.9 mph - N/A   Mostly Cloudy
12:53 PM 75.0 °F 70.0 °F 84% 30.16 in 10.0 mi ESE 9.2 mph - N/A   Overcast
1:53 PM 75.9 °F 71.1 °F 85% 30.14 in 10.0 mi East 8.1 mph - N/A   Mostly Cloudy
2:53 PM 79.0 °F 72.0 °F 79% 30.13 in 10.0 mi East 9.2 mph - N/A   Overcast
3:53 PM 77.0 °F 70.0 °F 79% 30.13 in 10.0 mi SE 11.5 mph - N/A   Mostly Cloudy
4:53 PM 77.0 °F 69.1 °F 76% 30.14 in 10.0 mi SE 10.4 mph - N/A   Clear
5:53 PM 73.9 °F 69.1 °F 85% 30.14 in 10.0 mi SE 8.1 mph - N/A   Clear
6:53 PM 73.0 °F 68.0 °F 84% 30.16 in 10.0 mi SE 6.9 mph - N/A   Clear
7:53 PM 71.1 °F 66.9 °F 87% 30.17 in 10.0 mi South 5.8 mph - N/A   Clear
8:53 PM 70.0 °F 66.9 °F 90% 30.19 in 10.0 mi SSE 5.8 mph - N/A   Clear
9:53 PM 70.0 °F 66.9 °F 90% 30.20 in 10.0 mi SSE 6.9 mph - N/A   Clear
10:53 PM 69.1 °F 66.0 °F 90% 30.20 in 10.0 mi South 4.6 mph - N/A   Clear
11:53 PM 63.0 °F 63.0 °F 100% 30.20 in 10.0 mi Calm Calm - N/A   Clear